Regional Weather Roundup
Issued by NWS Green Bay, WI

Home | Current Version | Previous Version | Text Only | Print | Product List | Glossary On
Versions: 1 2 3 4 5 6 7 8 9 10 11 12 13 14 15 16 17 18 19 20 21 22 23 24 25 26 27 28 29 30 31 32 33 34 35 36 37 38 39 40 41 42 43 44 45 46 47 48 49 50
000
ASUS43 KGRB 211100
RWRGRB

NORTH-CENTRAL AND NORTHEAST WISCONSIN REGIONAL WEATHER ROUNDUP
NATIONAL WEATHER SERVICE GREEN BAY WI
600 AM CDT MON AUG 21 2017

WIZ005-009-010>012-018-019-211200-
NORTH CENTRAL WISCONSIN

CITY           SKY/WX    TMP DP  RH WIND       PRES   REMARKS
IRONWOOD       PTCLDY    50  50 100 CALM      30.09R FOG
MANITOWISH WTR NOT AVBL
ARBOR VITAE    NOT AVBL
EAGLE RIVER    NOT AVBL
LAND O LAKES   NOT AVBL
RHINELANDER    CLOUDY    62  62 100 N3        30.09R
PHILLIPS       NOT AVBL
ANTIGO         NOT AVBL
TOMAHAWK       NOT AVBL
MERRILL        NOT AVBL
$$

WIZ013-073-211200-
NORTHEAST WISCONSIN

CITY           SKY/WX    TMP DP  RH WIND       PRES   REMARKS
IRON MOUNTAIN  MOCLDY    65  61  87 CALM      30.06R
MARINETTE      CLOUDY    67  66  97 W3        30.05R
$$

WIZ017-030-035>037-045-211200-
CENTRAL WISCONSIN

CITY           SKY/WX    TMP DP  RH WIND       PRES   REMARKS
MEDFORD        NOT AVBL
WAUSAU         CLOUDY    65  64  97 CALM      30.05R FOG
MOSINEE        FOG       63  63 100 CALM      30.07R VSB 1/2
MARSHFIELD     CLOUDY    65  63  93 CALM      30.06R FOG
WISC RAPIDS    CLOUDY    65  65 100 CALM      30.06R FOG
STEVENS POINT  NOT AVBL
WAUPACA        NOT AVBL
SHAWANO        NOT AVBL
CLINTONVILLE   NOT AVBL
WAUTOMA        CLOUDY    60  60 100 CALM      30.06R
$$

WIZ038-039-048-051-211200-
FOX VALLEY

CITY           SKY/WX    TMP DP  RH WIND       PRES   REMARKS
NWS GREEN BAY  FOG       63  63 100 CALM      30.04S VSB 1/2
APPLETON       MOCLDY    64  64 100 CALM      30.04R
OSHKOSH        CLOUDY    64  62  93 S3        30.05R FOG
FOND DU LAC    MOCLDY    64  62  93 S5        30.06R FOG
$$

WIZ022-050-052-211200-
EAST CENTRAL WISCONSIN

CITY           SKY/WX    TMP DP  RH WIND       PRES   REMARKS
EPHRAIM        NOT AVBL
WASHINGTON ISL NOT AVBL
STURGEON BAY   CLOUDY    69  67  93 W6        30.04S
MANITOWOC      NOT AVBL
SHEBOYGAN      CLOUDY    62  62 100 SW3       30.06R FOG
$$

LMZ563-521-522-541>543-211200-
LAKESHORE

STATION/POSITION TIME  TEMP    WIND        PRES    VSBY  WAVE
                       AIR SEA DIR/SP/G                  HT/PER
                 (UTC) (F)     (DEG/KT/KT) (MB)    (MI)  (FT/S)
SHEBOYGAN LKSHOR 1000   68     330/  3/  3 1016.9R
KEWAUNEE LKSHORE 1030   67     150/  8/ 10 1016.1S
NORTHPORT PIER   1040   69     250/  3/  5 1016.6R
N MID LAKE BUOY  0950   68 67  210/  6/  8 1016.7R         2/ 5
S GREEN BAY BUOY 1030   71 71  240/  6/  6 1016.7R
SISTER BAY LKSHO 1018   71     290/  3/  3   N/A
MENOMINEE LKSHOR 1030   69     240/  5/  6 1016.6R
$$




USA.gov is the U.S. government's official web portal to all federal, state and local government web resources and services.